Waskish, MN

10:04 AM CDT on April 25, 2018 (GMT -0500)
Waskish Municipal

Weather History for KVWU - October, 2012

Change the Weather History Date:

Tuesday, October 16, 2012

  Actual Average (KBDE) Record (KBDE)
Temperature  
Mean Temperature 54 °F -  
Max Temperature 66 °F 51 °F 80 °F (1953)
Min Temperature 42 °F 33 °F 10 °F (1952)
Degree Days  
Heating Degree Days 11    
Growing Degree Days 4 (Base 50)    
Moisture  
Dew Point 41 °F    
Average Humidity 65    
Maximum Humidity 87    
Minimum Humidity 46    
Precipitation  
Precipitation 0.00 in - - ()
Sea Level Pressure  
Sea Level Pressure 29.45 in    
Wind  
Wind Speed 6 mph (South)    
Max Wind Speed 10 mph    
Max Gust Speed 20 mph    
Visibility 10 miles    
Events      
Averages and records for this station are not official NWS values.
T = Trace of Precipitation, MM = Missing Value Source: NWS Daily Summary

Daily Weather History Graph

Daily Weather History Graph

Search for Another Location

Airport or City:

Astronomy

Oct. 16, 2012 Rise Set
Actual Time 7:39 AM CDT 6:26 PM CDT
Civil Twilight 7:08 AM CDT 6:57 PM CDT
Nautical Twilight 6:32 AM CDT 7:33 PM CDT
Astronomical Twilight 5:56 AM CDT 8:09 PM CDT
Moon 9:13 AM CDT (10/16) 7:00 PM CDT (10/16)
Length of Visible Light 11h 49m
Length of Day
10h 46m
New Moon, 2% of the Moon is Illuminated
Oct 16
New Moon
Oct 21
First Quarter
Oct 29
Full
Nov 6
Last Quarter
Nov 13
New

Hourly Weather History & Observations

Time (CDT) Temp. Windchill Dew Point Humidity Pressure Visibility Wind Dir Wind Speed Gust Speed Precip Events Conditions
12:12 AM 53.6 °F - 39.2 °F 58% 29.56 in 10.0 mi SSE 9.2 mph 19.6 mph N/A   Mostly Cloudy
12:32 AM 53.6 °F - 39.2 °F 58% 29.56 in 10.0 mi SSE 9.2 mph 17.3 mph N/A   Mostly Cloudy
12:53 AM 53.6 °F - 39.2 °F 58% 29.56 in 10.0 mi SSE 9.2 mph 17.3 mph N/A   Clear
1:12 AM 53.6 °F - 39.2 °F 58% 29.55 in 10.0 mi SSE 10.4 mph 16.1 mph N/A   Clear
1:32 AM 53.6 °F - 39.2 °F 58% 29.55 in 10.0 mi SSE 9.2 mph 16.1 mph N/A   Clear
1:53 AM 53.6 °F - 39.2 °F 58% 29.54 in 10.0 mi SSE 9.2 mph - N/A   Clear
2:12 AM 53.6 °F - 39.2 °F 58% 29.54 in 10.0 mi SSE 9.2 mph - N/A   Clear
2:32 AM 53.6 °F - 39.2 °F 58% 29.53 in 10.0 mi SSE 8.1 mph - N/A   Clear
2:53 AM 53.6 °F - 39.2 °F 58% 29.53 in 10.0 mi South 3.5 mph - N/A   Clear
3:12 AM 51.8 °F - 39.2 °F 62% 29.53 in 10.0 mi Calm Calm - N/A   Clear
3:32 AM 51.8 °F - 39.2 °F 62% 29.52 in 10.0 mi SSE 5.8 mph - N/A   Clear
3:53 AM 53.6 °F - 39.2 °F 58% 29.52 in 10.0 mi SSE 5.8 mph - N/A   Clear
4:12 AM 53.6 °F - 39.2 °F 58% 29.51 in 10.0 mi SSE 5.8 mph - N/A   Clear
4:32 AM 53.6 °F - 39.2 °F 58% 29.49 in 10.0 mi SSE 6.9 mph - N/A   Clear
4:53 AM 51.8 °F - 39.2 °F 62% 29.49 in 10.0 mi SSE 3.5 mph - N/A   Clear
5:12 AM 51.8 °F - 39.2 °F 62% 29.49 in 10.0 mi South 4.6 mph - N/A   Clear
5:32 AM 51.8 °F - 39.2 °F 62% 29.50 in 10.0 mi South 3.5 mph - N/A   Clear
6:12 AM 51.8 °F - 41.0 °F 67% 29.49 in 10.0 mi South 3.5 mph - N/A   Clear
6:32 AM 51.8 °F - 39.2 °F 62% 29.49 in 10.0 mi South 3.5 mph - N/A   Clear
6:53 AM 50.0 °F - 39.2 °F 66% 29.49 in 10.0 mi South 3.5 mph - N/A   Clear
7:12 AM 48.2 °F - 41.0 °F 76% 29.49 in 10.0 mi South 3.5 mph - N/A   Clear
7:32 AM 48.2 °F - 39.2 °F 71% 29.49 in 10.0 mi Calm Calm - N/A   Clear
7:53 AM 46.4 °F 45.2 °F 39.2 °F 76% 29.49 in 10.0 mi SSW 3.5 mph - N/A   Clear
8:12 AM 46.4 °F 45.2 °F 39.2 °F 76% - 10.0 mi SSW 3.5 mph - N/A   Clear
8:32 AM 46.4 °F 44.3 °F 41.0 °F 81% 29.50 in 10.0 mi WSW 4.6 mph - N/A   Clear
8:53 AM 50.0 °F - 42.8 °F 76% 29.51 in 10.0 mi WSW 6.9 mph - N/A   Clear
9:12 AM 51.8 °F - 42.8 °F 71% 29.51 in 10.0 mi WSW 6.9 mph - N/A   Clear
9:32 AM 53.6 °F - 42.8 °F 67% 29.51 in 10.0 mi SW 8.1 mph - N/A   Clear
9:53 AM 53.6 °F - 42.8 °F 67% 29.50 in 10.0 mi WSW 6.9 mph - N/A   Clear
10:12 AM 53.6 °F - 42.8 °F 67% 29.50 in 10.0 mi WSW 6.9 mph - N/A   Clear
10:32 AM 53.6 °F - 42.8 °F 67% 29.49 in 10.0 mi WSW 5.8 mph - N/A   Clear
10:53 AM 53.6 °F - 42.8 °F 67% 29.49 in 10.0 mi WSW 8.1 mph - N/A   Clear
11:12 AM 53.6 °F - 42.8 °F 67% 29.49 in 10.0 mi WSW 5.8 mph - N/A   Clear
11:32 AM 53.6 °F - 42.8 °F 67% 29.48 in 10.0 mi WSW 4.6 mph - N/A   Clear
11:52 AM 55.4 °F - 42.8 °F 63% 29.48 in 10.0 mi WSW 4.6 mph - N/A   Clear
12:12 PM 57.2 °F - 42.8 °F 59% 29.47 in 10.0 mi SSW 3.5 mph - N/A   Clear
12:32 PM 60.8 °F - 44.6 °F 55% 29.46 in 10.0 mi SSW 4.6 mph - N/A   Clear
12:52 PM 62.6 °F - 44.6 °F 52% 29.46 in 10.0 mi WSW 5.8 mph - N/A   Clear
1:12 PM 62.6 °F - 44.6 °F 52% 29.45 in 10.0 mi WSW 4.6 mph - N/A   Clear
1:32 PM 64.4 °F - 44.6 °F 49% 29.44 in 10.0 mi WSW 4.6 mph - N/A   Clear
1:52 PM 64.4 °F - 44.6 °F 49% 29.43 in 10.0 mi WSW 4.6 mph - N/A   Clear
2:12 PM 64.4 °F - 46.4 °F 52% 29.42 in 10.0 mi WSW 5.8 mph - N/A   Clear
2:32 PM 64.4 °F - 46.4 °F 52% 29.42 in 10.0 mi WSW 4.6 mph - N/A   Clear
3:12 PM 66.2 °F - 44.6 °F 46% 29.41 in 10.0 mi WSW 4.6 mph - N/A   Clear
3:32 PM 64.4 °F - 44.6 °F 49% 29.40 in 10.0 mi WSW 3.5 mph - N/A   Clear
3:52 PM 64.4 °F - 44.6 °F 49% 29.39 in 10.0 mi Calm Calm - N/A   Clear
4:12 PM 62.6 °F - 44.6 °F 52% 29.39 in 10.0 mi West 3.5 mph - N/A   Clear
4:52 PM 64.4 °F - 44.6 °F 49% 29.38 in 10.0 mi Calm Calm - N/A   Clear
5:12 PM 64.4 °F - 44.6 °F 49% 29.38 in 10.0 mi Calm Calm - N/A   Clear
5:33 PM 59.0 °F - 44.6 °F 59% 29.38 in 10.0 mi Calm Calm - N/A   Clear
5:52 PM 55.4 °F - 44.6 °F 67% 29.37 in 10.0 mi Calm Calm - N/A   Clear
6:12 PM 53.6 °F - 44.6 °F 72% 29.38 in 10.0 mi Calm Calm - N/A   Clear
6:33 PM 51.8 °F - 42.8 °F 71% 29.38 in 10.0 mi Calm Calm - N/A   Clear
6:52 PM 48.2 °F - 42.8 °F 82% 29.38 in 10.0 mi Calm Calm - N/A   Clear
7:12 PM 48.2 °F - 41.0 °F 76% 29.38 in 10.0 mi Calm Calm - N/A   Clear
7:33 PM 44.6 °F - 39.2 °F 81% 29.38 in 10.0 mi Calm Calm - N/A   Clear
7:52 PM 44.6 °F - 39.2 °F 81% 29.37 in 10.0 mi Calm Calm - N/A   Clear
8:12 PM 42.8 °F - 39.2 °F 87% 29.37 in 10.0 mi Calm Calm - N/A   Clear
8:32 PM 42.8 °F 41.1 °F 37.4 °F 81% 29.36 in 10.0 mi ESE 3.5 mph - N/A   Clear
8:52 PM 42.8 °F 40.1 °F 37.4 °F 81% 29.35 in 10.0 mi ESE 4.6 mph - N/A   Clear
9:12 PM 46.4 °F 45.2 °F 37.4 °F 71% 29.35 in 10.0 mi ESE 3.5 mph - N/A   Clear
9:32 PM 44.6 °F 43.1 °F 37.4 °F 76% 29.34 in 10.0 mi ENE 3.5 mph - N/A   Clear
9:52 PM 46.4 °F 45.2 °F 39.2 °F 76% 29.34 in 10.0 mi East 3.5 mph - N/A   Clear
10:17 PM 42.8 °F 39.3 °F 35.6 °F 76% 29.33 in 10.0 mi ESE 5.8 mph - N/A   Clear
10:32 PM 44.6 °F 43.1 °F 39.2 °F 81% 29.32 in 10.0 mi East 3.5 mph - N/A   Clear
10:52 PM 44.6 °F 42.2 °F 37.4 °F 76% 29.32 in 10.0 mi ESE 4.6 mph - N/A   Clear
11:12 PM 42.8 °F 40.1 °F 37.4 °F 81% 29.31 in 10.0 mi SE 4.6 mph - N/A   Clear
11:32 PM 42.8 °F 41.1 °F 39.2 °F 87% 29.32 in 10.0 mi ESE 3.5 mph - N/A   Clear
11:52 PM 42.8 °F 41.1 °F 37.4 °F 81% 29.31 in 10.0 mi SE 3.5 mph - N/A   Clear